User: anonymous   Login
Location: Unspecified
(0.0000°N, 0.0000°E)
Time: 22:23:46
(UTC+00:00)
Language:

LEMUR 2 CAEL - Orbit

View from above orbital plane
View from above orbital plane
View from above satellite
View from above satellite

Ground track
Ground track

The orbit is defined by the following mean orbital elements,

1 58903U          26145.09141300 +.00000000 +00000-0 +38459-3 0 00006
2 58903  97.4124 355.7127 0008207 168.0589 192.0853 15.40114460    02
Epoch (UTC): 25 May 2026 02:11:38
Eccentricity: 0.0008207
inclination: 97.4124°
perigee height: 440 km
apogee height: 451 km
right ascension of ascending node: 355.7127°
argument of perigee: 168.0589°
revolutions per day: 15.40114460
mean anomaly at epoch: 192.0853°

The dashed part of the orbit path shows where the satellite is in the earth's shadow,  

DLR